Home   Weather   Bloomington   Past weeks

Flag for USA Past Weather in Bloomington, Illinois, USA — Yesterday and Last 2 Weeks

Now
61 °F

Clear.


Feels Like: 61 °F
Forecast: 43 / 73 °F
Wind: 5 mph from Northeast

Location: Bloomington / Normal

Current Time: Apr 23, 2017 at 9:08:06 pm

Latest Report: Apr 23, 2017 at 7:56 pm


Visibility: 10 mi

Pressure: 30.11 "Hg

Humidity: 27%

Dew Point: 27 °F

Location of BloomingtonLocation

Past Weather in Bloomington — Graph

°F

Bloomington Temperature Yesterday

Maximum temperature yesterday: 62 °F (at 2:56 pm)
Minimum temperature yesterday: 41 °F (at 2:56 am)
Average temperature yesterday: 49 °F

High & Low Weather Summary for the Past Weeks

 TemperatureHumidityPressure
High80 °F (Apr 19, 4:56 pm)97% (Apr 14, 7:56 pm)30.47 "Hg (Apr 14, 7:56 pm)
Low36 °F (Apr 23, 4:56 am)18% (Apr 23, 3:56 pm)29.73 "Hg (Apr 9, 4:56 pm)
Average60 °F64%30.12 "Hg
* Reported Apr 8 6:56 pm — Apr 23 6:56 pm, Bloomington, Weather by CustomWeather, © 2017

Note: Actual official high and low records may vary slightly from our data, if they occured in-between our weather recording intervals... More about our weather records

Advertising

Bloomington Weather History for the Previous 24 Hours

Scroll right to see more
 ConditionsComfort  
Time TempWeatherWind HumidityBarometerVisibility
6:56 pm
Sun, Apr 23
67 °FSunny.9 mph22%30.10 "Hg10 mi
5:56 pm70 °FSunny.10 mph19%30.12 "Hg10 mi
4:56 pm71 °FSunny.13 mph19%30.11 "Hg10 mi
3:56 pm72 °FSunny.14 mph18%30.11 "Hg10 mi
2:56 pm71 °FSunny.13 mph19%30.13 "Hg10 mi
1:56 pm69 °FSunny.18 mph21%30.14 "Hg10 mi
12:56 pm67 °FSunny.15 mph25%30.16 "Hg10 mi
11:56 am65 °FSunny.12 mph28%30.19 "Hg9 mi
10:56 am62 °FSunny.15 mph34%30.20 "Hg10 mi
9:56 am59 °FSunny.15 mph39%30.22 "Hg10 mi
8:56 am53 °FSunny.9 mph47%30.23 "Hg10 mi
7:56 am46 °FSunny.9 mph56%30.24 "Hg10 mi
6:56 am40 °FSunny.9 mph60%30.24 "Hg10 mi
5:56 am36 °FClear.10 mph67%30.23 "Hg10 mi
4:56 am36 °FClear.8 mph67%30.22 "Hg10 mi
3:56 am37 °FClear.8 mph67%30.21 "Hg10 mi
2:56 am39 °FClear.6 mph65%30.20 "Hg10 mi
1:56 am41 °FClear.7 mph60%30.22 "Hg10 mi
12:56 am40 °FClear.6 mph65%30.24 "Hg10 mi
11:56 pm
Sat, Apr 22
41 °FClear.6 mph62%30.25 "Hg10 mi
10:56 pm43 °FClear.9 mph58%30.24 "Hg10 mi
9:56 pm43 °FClear.9 mph60%30.22 "Hg10 mi
Weather by CustomWeather, © 2017

See weather overviewHow to use our weather pages